World > North America > United States > North Carolina > Palmyra  

Palmyra, NC Hourly Weather Updates

Feedback E-mail the Weather

Quick Clicks

Palmyra, NC Weather Maps

°F °C°F °C
Palmyra Weather Map
UTC Time: 4/23/2024, 18:21
Your Time:

Palmyra, NC Regional Weather

Expires:202404231900;;249956
ASUS42 KMHX 231816
RWRMHX
WEATHER ROUNDUP FOR EASTERN NORTH CAROLINA
NATIONAL WEATHER SERVICE NEWPORT/MOREHEAD CITY NC
200 PM EDT TUE APR 23 2024

NOTE: "FAIR" INDICATES FEW OR NO CLOUDS BELOW 12,000 FEET
WITH NO SIGNIFICANT WEATHER AND/OR OBSTRUCTIONS TO VISIBILITY


NCZ011>013-027>030-043-044-078>080-089-090>093-098-231900-
COASTAL PLAIN
  
CITY           SKY/WX    TMP DP  RH WIND       PRES   REMARKS
AHOSKIE        SUNNY     66  34  31 S3        30.14F                  
TARBORO        SUNNY     68  34  28 S5        30.15F                  
WILLIAMSTON    CLEAR     69  34  27 W3        30.16F                  
ROCKY MOUNT    SUNNY     70  35  27 SW9G16    30.15F                  
GREENVILLE     SUNNY     68  32  26 SW9       30.16F                  
WASHINGTON     SUNNY     67  33  27 CALM      30.17F                  
GOLDSBORO      SUNNY     68  35  30 SW10      30.16F                  
KINSTON        SUNNY     68  34  28 CALM      30.17F                  
MOUNT OLIVE    SUNNY     67  35  31 CALM      30.17F                  
NEW BERN       SUNNY     67  35  30 VRB5      30.19F                  
KENANSVILLE    SUNNY     66  34  30 NE3       30.18F                  
RICHLANDS      SUNNY     68  36  30 VRB5      30.19F                  
WALLACE        CLEAR     67  33  28 NW6       30.18F                  
CLINTON        SUNNY     68  36  30 CALM      30.18F                  
ELIZABETHTOWN  SUNNY     68  35  29 S7        30.19F                  
WHITEVILLE     SUNNY     67  33  28 NW3       30.21S                  

$$


SKY/WX - Weather  TMP - Temperature  DP - Dew Point  RH - Humidity
WIND - Wind Direction/Speed PRES - Barometric Pressure VSB - Visibility
WCI - Wind Chill Index E13G22 Wind - East Wind 13 mph/Gusts of 22 mph

Trending Headlines

Trending Entertainment Headlines

Palmyra Radar Loop

Use the map search tool if you want to place a location marker on the radar map...

Palmyra Quick Facts

National Two Day Weather Forecast


E-mail the Palmyra Weather Forecast

Voice your opinion or tell us about page issues...